Flagstaff, AZ

10:55 PM MST on April 24, 2017 (GMT -0700)
Flagstaff Pulliam

Weather History for KFLG - January, 2013

Change the Weather History Date:

Tuesday, January 29, 2013

  Actual Average Record
Temperature  
Mean Temperature 21 °F 30 °F  
Max Temperature 30 °F 43 °F 60 °F (1986)
Min Temperature 11 °F 18 °F -12 °F (1932)
Degree Days  
Heating Degree Days 44 35  
Month to date heating degree days 1194 1021  
Since 1 July heating degree days 3765 3849  
Cooling Degree Days 0 0  
Month to date cooling degree days 0 0  
Year to date cooling degree days 0 0  
Moisture  
Dew Point 12 °F    
Average Humidity 65    
Maximum Humidity 80    
Minimum Humidity 50    
Precipitation  
Precipitation T in 0.06 in 2.05 in (1915)
Month to date precipitation 2.64 1.91  
Year to date precipitation 2.64 1.91  
Snow  
Snow T in 0.80 in 18.00 in (1915)
Month to date snowfall 3.4 21.6  
Since 1 July snowfall 33.0 50.7  
Snow Depth 2.00 in    
Sea Level Pressure  
Sea Level Pressure 30.01 in    
Wind  
Wind Speed 7 mph (NW)    
Max Wind Speed 15 mph    
Max Gust Speed 28 mph    
Visibility 9 miles    
Events Snow    
T = Trace of Precipitation, MM = Missing Value Source: NWS Daily Summary

Daily Weather History Graph

Daily Weather History Graph

Search for Another Location

Airport or City:

Trip Planner

Search our weather history database for the weather conditions in past years. The results will help you decide how hot, cold, wet, or windy it might be!

Date:

Astronomy

Jan. 29, 2013 Rise Set
Actual Time 7:27 AM MST 5:52 PM MST
Civil Twilight 7:00 AM MST 6:19 PM MST
Nautical Twilight 6:30 AM MST 6:49 PM MST
Astronomical Twilight 6:00 AM MST 7:19 PM MST
Moon 8:43 PM MST (1/29) 8:34 AM MST (1/29)
Length of Visible Light 11h 18m
Length of Day
10h 24m
Waning Gibbous, 93% of the Moon is Illuminated
Jan 29
Waning Gibbous
Feb 3
Last Quarter
Feb 10
New
Feb 17
First Quarter
Feb 25
Full

Hourly Weather History & Observations

Time (MST) Temp. Windchill Dew Point Humidity Pressure Visibility Wind Dir Wind Speed Gust Speed Precip Events Conditions
12:57 AM 16.0 °F 7.4 °F 10.0 °F 77% 29.91 in 10.0 mi Variable 5.8 mph - N/A   Clear
1:57 AM 15.1 °F 3.3 °F 8.1 °F 74% 29.89 in 10.0 mi West 9.2 mph - N/A   Clear
2:57 AM 14.0 °F 6.5 °F 6.1 °F 71% 29.91 in 10.0 mi Variable 4.6 mph - N/A   Clear
3:57 AM 14.0 °F 2.9 °F 3.9 °F 64% 29.91 in 10.0 mi NNW 8.1 mph 16.1 mph N/A   Clear
4:57 AM 12.9 °F 6.9 °F 3.9 °F 67% 29.92 in 10.0 mi Variable 3.5 mph - N/A   Clear
5:57 AM 12.0 °F 2.7 °F 5.0 °F 73% 29.95 in 10.0 mi West 5.8 mph - N/A   Clear
6:57 AM 12.0 °F 5.9 °F 5.0 °F 73% 29.96 in 10.0 mi Variable 3.5 mph - N/A   Clear
7:57 AM 14.0 °F 3.9 °F 6.1 °F 71% 29.98 in 10.0 mi NW 6.9 mph - N/A   Clear
8:57 AM 16.0 °F 10.4 °F 8.1 °F 71% 29.99 in 10.0 mi Variable 3.5 mph - N/A   Clear
9:57 AM 19.9 °F 13.4 °F 9.0 °F 62% 29.99 in 10.0 mi Variable 4.6 mph 16.1 mph N/A   Clear
10:57 AM 23.0 °F 11.7 °F 9.0 °F 55% 29.98 in 10.0 mi West 11.5 mph 21.9 mph N/A   Clear
11:57 AM 26.1 °F 16.2 °F 10.9 °F 53% 29.99 in 10.0 mi WNW 10.4 mph 18.4 mph N/A   Clear
12:57 PM 27.0 °F 18.7 °F 12.9 °F 56% 29.96 in 10.0 mi WNW 8.1 mph 23.0 mph N/A   Mostly Cloudy
1:57 PM 28.0 °F 19.3 °F 14.0 °F 56% 29.96 in 10.0 mi NW 9.2 mph 24.2 mph N/A   Overcast
2:57 PM 28.9 °F 20.4 °F 15.1 °F 56% 29.97 in 10.0 mi WNW 9.2 mph 21.9 mph N/A   Overcast
3:57 PM 28.0 °F 18.6 °F 14.0 °F 56% 30.01 in 10.0 mi NNW 10.4 mph 17.3 mph N/A   Overcast
4:57 PM 27.0 °F 16.7 °F 14.0 °F 58% 30.03 in 9.0 mi WNW 11.5 mph 21.9 mph 0.00 in   Mostly Cloudy
5:57 PM 25.0 °F 16.3 °F 17.1 °F 72% 30.07 in 10.0 mi NW 8.1 mph - N/A   Partly Cloudy
6:51 PM 24.8 °F - 19.4 °F 80% 30.00 in 2.5 mi Calm Calm - 0.00 in Snow Light Snow
6:57 PM 24.1 °F - 19.0 °F 81% 30.10 in 4.0 mi Calm Calm - 0.00 in Snow Light Snow
7:08 PM 24.8 °F - 19.4 °F 80% 30.01 in 9.0 mi Calm Calm - 0.00 in   Overcast
7:57 PM 24.1 °F 18.2 °F 19.0 °F 81% 30.13 in 10.0 mi Variable 4.6 mph - 0.00 in   Mostly Cloudy
8:57 PM 25.0 °F 19.3 °F 18.0 °F 75% 30.13 in 10.0 mi Variable 4.6 mph - N/A   Overcast
9:57 PM 24.1 °F 14.4 °F 15.1 °F 69% 30.15 in 10.0 mi North 9.2 mph - N/A   Partly Cloudy
10:57 PM 24.1 °F 14.4 °F 12.9 °F 62% 30.15 in 10.0 mi NNW 9.2 mph 17.3 mph N/A   Clear
11:57 PM 24.1 °F 13.7 °F 10.0 °F 55% 30.15 in 10.0 mi NW 10.4 mph 18.4 mph N/A   Clear